When you browse on this site, cookies collect data to enhance your experience and personalize the content and advertising you see.
Visit our Privacy Policy to learn more. By continuing to use the site, you agree to this use of cookies and data.
  • In Austria
  • List of Countries
  • For 7 days
  • Water Temperature
  • Satellite Maps
  • Weather Map
  • News
  • Weather Widgets
  • user-avatar
    Login

    Hourly Weather Tokyo

    Today, 21 April, Sunday

    Time Temperature Precipitation Wind Pressure Humidity
    00:00 +17°C° 0 mm 4 mps 758 mmHg 67%
    01:00 +17°C° 0 mm 3 mps 758 mmHg 67%
    02:00 +17°C° 0 mm 3 mps 758 mmHg 67%
    03:00 +17°C° 0 mm 2 mps 758 mmHg 67%
    04:00 +17°C° 0 mm 2 mps 758 mmHg 67%
    05:00 +18°C° 0 mm 1 mps 758 mmHg 68%
    06:00 +16°C° 0 mm 0 mps 758 mmHg 68%
    07:00 +19°C° 0 mm 1 mps 758 mmHg 65%
    08:00 +19°C° 0 mm 1 mps 758 mmHg 61%
    09:00 +20°C° 0 mm 1 mps 758 mmHg 57%
    10:00 +21°C° 0 mm 1 mps 757 mmHg 52%
    11:00 +22°C° 0 mm 1 mps 757 mmHg 47%
    12:00 +23°C° 0 mm 1 mps 757 mmHg 42%
    13:00 +24°C° 0 mm 2 mps 756 mmHg 39%
    14:00 +25°C° 0 mm 3 mps 756 mmHg 36%
    15:00 +26°C° 0 mm 4 mps 756 mmHg 34%
    16:00 +25°C° 0 mm 4 mps 756 mmHg 38%
    17:00 +25°C° 0 mm 5 mps 756 mmHg 43%
    18:00 +23°C° 0 mm 5 mps 756 mmHg 47%
    19:00 +23°C° 0 mm 5 mps 756 mmHg 53%
    20:00 +22°C° 0 mm 4 mps 757 mmHg 58%
    21:00 +21°C° 0 mm 4 mps 757 mmHg 63%
    22:00 +21°C° 0 mm 3 mps 757 mmHg 65%
    23:00 +21°C° 0 mm 2 mps 757 mmHg 67%

    Tomorrow, 22 April, Monday

    Time Temperature Precipitation Wind Pressure Humidity
    00:00 +21°C° 0 mm 1 mps 757 mmHg 68%
    01:00 +20°C° 0 mm 2 mps 757 mmHg 68%
    02:00 +20°C° 0 mm 2 mps 756 mmHg 69%
    03:00 +19°C° 0 mm 2 mps 756 mmHg 69%
    04:00 +19°C° 0 mm 2 mps 756 mmHg 69%
    05:00 +19°C° 0 mm 2 mps 757 mmHg 69%
    06:00 +19°C° 0 mm 2 mps 757 mmHg 69%
    07:00 +20°C° 0 mm 2 mps 757 mmHg 65%
    08:00 +20°C° 0 mm 2 mps 757 mmHg 62%
    09:00 +22°C° 0 mm 1 mps 757 mmHg 58%
    10:00 +23°C° 0 mm 1 mps 757 mmHg 53%
    11:00 +25°C° 0 mm 1 mps 757 mmHg 48%
    12:00 +26°C° 0 mm 1 mps 757 mmHg 43%
    13:00 +26°C° 0 mm 2 mps 757 mmHg 41%
    14:00 +27°C° 0 mm 2 mps 757 mmHg 39%
    15:00 +28°C° 0 mm 2 mps 757 mmHg 37%
    16:00 +27°C° 0.2 mm 3 mps 757 mmHg 41%
    17:00 +26°C° 0.2 mm 4 mps 758 mmHg 46%
    18:00 +25°C° 0.2 mm 5 mps 758 mmHg 51%
    19:00 +23°C° 0.2 mm 5 mps 759 mmHg 52%
    20:00 +22°C° 0.2 mm 4 mps 760 mmHg 54%
    21:00 +21°C° 0.2 mm 4 mps 761 mmHg 56%
    22:00 +21°C° 0.1 mm 3 mps 761 mmHg 55%
    23:00 +21°C° 0.1 mm 3 mps 761 mmHg 55%

    Day after tomorrow, 23 April, Tuesday

    Time Temperature Precipitation Wind Pressure Humidity
    00:00 +20°C° 0.1 mm 3 mps 762 mmHg 55%
    01:00 +20°C° 0 mm 3 mps 762 mmHg 53%
    02:00 +20°C° 0 mm 3 mps 762 mmHg 51%
    03:00 +19°C° 0 mm 3 mps 762 mmHg 49%
    04:00 +19°C° 0 mm 3 mps 762 mmHg 48%
    05:00 +19°C° 0 mm 3 mps 762 mmHg 47%
    06:00 +19°C° 0 mm 3 mps 763 mmHg 46%
    07:00 +19°C° 0 mm 3 mps 763 mmHg 43%
    08:00 +20°C° 0 mm 3 mps 763 mmHg 40%
    09:00 +21°C° 0 mm 3 mps 764 mmHg 38%
    10:00 +22°C° 0 mm 3 mps 763 mmHg 37%
    11:00 +24°C° 0 mm 3 mps 763 mmHg 35%
    12:00 +25°C° 0 mm 3 mps 763 mmHg 34%
    13:00 +25°C° 0 mm 4 mps 763 mmHg 35%
    14:00 +25°C° 0 mm 5 mps 762 mmHg 36%
    15:00 +26°C° 0 mm 6 mps 762 mmHg 38%
    16:00 +24°C° 0 mm 6 mps 762 mmHg 42%
    17:00 +23°C° 0 mm 6 mps 762 mmHg 46%
    18:00 +22°C° 0 mm 6 mps 763 mmHg 50%
    19:00 +22°C° 0 mm 6 mps 763 mmHg 54%
    20:00 +21°C° 0 mm 6 mps 763 mmHg 58%
    21:00 +20°C° 0 mm 6 mps 764 mmHg 62%
    22:00 +20°C° 0 mm 6 mps 764 mmHg 65%
    23:00 +20°C° 0 mm 6 mps 763 mmHg 67%

    24 April, Wednesday

    Time Temperature Precipitation Wind Pressure Humidity
    00:00 +20°C° 0 mm 6 mps 763 mmHg 70%
    01:00 +20°C° 0 mm 5 mps 763 mmHg 71%
    02:00 +19°C° 0 mm 5 mps 762 mmHg 73%
    03:00 +19°C° 0 mm 5 mps 762 mmHg 75%
    04:00 +19°C° 0 mm 5 mps 762 mmHg 75%
    05:00 +19°C° 0 mm 4 mps 762 mmHg 76%
    06:00 +19°C° 0 mm 4 mps 762 mmHg 76%
    07:00 +21°C° 0 mm 5 mps 762 mmHg 72%
    08:00 +22°C° 0 mm 6 mps 762 mmHg 68%
    09:00 +23°C° 0 mm 6 mps 762 mmHg 64%
    10:00 +23°C° 0 mm 7 mps 761 mmHg 59%
    11:00 +24°C° 0 mm 8 mps 761 mmHg 55%
    12:00 +26°C° 0 mm 8 mps 761 mmHg 50%
    13:00 +26°C° 0 mm 8 mps 760 mmHg 52%
    14:00 +24°C° 0 mm 9 mps 760 mmHg 53%
    15:00 +24°C° 0 mm 9 mps 759 mmHg 55%
    16:00 +23°C° 0 mm 8 mps 759 mmHg 58%
    17:00 +23°C° 0 mm 8 mps 759 mmHg 60%
    18:00 +22°C° 0 mm 8 mps 759 mmHg 63%
    19:00 +22°C° 0.1 mm 7 mps 759 mmHg 64%
    20:00 +21°C° 0.1 mm 7 mps 759 mmHg 66%
    21:00 +21°C° 0.1 mm 7 mps 759 mmHg 67%
    22:00 +20°C° 0.4 mm 7 mps 758 mmHg 69%
    23:00 +20°C° 0.4 mm 6 mps 757 mmHg 71%

    25 April, Thursday

    Time Temperature Precipitation Wind Pressure Humidity
    00:00 +20°C° 0.4 mm 6 mps 757 mmHg 73%
    01:00 +20°C° 0.7 mm 5 mps 756 mmHg 74%
    02:00 +20°C° 0.7 mm 5 mps 756 mmHg 75%
    03:00 +19°C° 0.7 mm 4 mps 755 mmHg 76%
    04:00 +19°C° 0 mm 3 mps 755 mmHg 76%
    05:00 +19°C° 0 mm 3 mps 755 mmHg 76%
    06:00 +19°C° 0 mm 2 mps 754 mmHg 76%
    07:00 +20°C° 0 mm 2 mps 754 mmHg 70%
    08:00 +23°C° 0 mm 2 mps 754 mmHg 64%
    09:00 +24°C° 0 mm 2 mps 754 mmHg 58%
    10:00 +25°C° 0 mm 2 mps 753 mmHg 55%
    11:00 +26°C° 0 mm 2 mps 753 mmHg 52%
    12:00 +27°C° 0 mm 3 mps 753 mmHg 48%
    13:00 +27°C° 0 mm 2 mps 752 mmHg 48%
    14:00 +27°C° 0 mm 2 mps 752 mmHg 48%
    15:00 +27°C° 0 mm 2 mps 752 mmHg 48%
    16:00 +27°C° 0 mm 2 mps 752 mmHg 50%
    17:00 +27°C° 0 mm 3 mps 751 mmHg 51%
    18:00 +27°C° 0 mm 3 mps 751 mmHg 53%
    19:00 +26°C° 0 mm 3 mps 751 mmHg 58%
    20:00 +25°C° 0 mm 3 mps 751 mmHg 63%
    21:00 +24°C° 0 mm 3 mps 752 mmHg 68%
    22:00 +24°C° 0 mm 3 mps 751 mmHg 71%
    23:00 +23°C° 0 mm 2 mps 751 mmHg 74%

    26 April, Friday

    Time Temperature Precipitation Wind Pressure Humidity
    00:00 +23°C° 0 mm 1 mps 750 mmHg 76%
    01:00 +23°C° 0 mm 1 mps 750 mmHg 77%
    02:00 +22°C° 0 mm 1 mps 750 mmHg 78%
    03:00 +22°C° 0 mm 1 mps 749 mmHg 78%
    04:00 +21°C° 0 mm 2 mps 750 mmHg 78%
    05:00 +21°C° 0 mm 3 mps 750 mmHg 78%
    06:00 +20°C° 0 mm 3 mps 751 mmHg 77%
    07:00 +21°C° 0 mm 3 mps 751 mmHg 73%
    08:00 +21°C° 0 mm 4 mps 751 mmHg 69%
    09:00 +22°C° 0 mm 4 mps 751 mmHg 65%
    10:00 +23°C° 0 mm 4 mps 751 mmHg 62%
    11:00 +23°C° 0 mm 4 mps 752 mmHg 58%
    12:00 +25°C° 0 mm 4 mps 752 mmHg 54%
    13:00 +23°C° 0 mm 5 mps 752 mmHg 53%
    14:00 +23°C° 0 mm 6 mps 752 mmHg 51%
    15:00 +23°C° 0 mm 6 mps 752 mmHg 50%
    16:00 +21°C° 0 mm 6 mps 753 mmHg 54%
    17:00 +20°C° 0 mm 6 mps 753 mmHg 59%
    18:00 +19°C° 0 mm 6 mps 754 mmHg 63%
    19:00 +17°C° 0.3 mm 6 mps 754 mmHg 64%
    20:00 +17°C° 0.3 mm 6 mps 755 mmHg 65%
    21:00 +16°C° 0.3 mm 6 mps 755 mmHg 66%
    22:00 +16°C° 0.6 mm 5 mps 755 mmHg 68%
    23:00 +16°C° 0.6 mm 5 mps 755 mmHg 69%
    Show more